Regional Weather Roundup
Issued by NWS

Home | Current Version | Previous Version | Text Only | Print | Product List | Glossary Off
Versions: 1 2 3 4 5 6 7 8 9 10 11 12 13 14 15 16 17 18 19 20 21 22 23 24 25 26 27 28 29 30 31 32 33 34 35 36 37 38 39 40 41 42 43 44 45 46 47 48 49 50

000
ASUS45 KTFX 121010
RWRMT
MONTANA REGIONAL WEATHER ROUNDUP
NATIONAL WEATHER SERVICE GREAT FALLS MT
300 AM MST FRI FEB 12 2016

NOTE: "FAIR" INDICATES FEW OR NO CLOUDS BELOW 12000 FEET WITH NO
SIGNIFICANT WEATHER AND/OR OBSTRUCTIONS TO VISIBILITY.

MTZ001>007-043-121100-
WEST OF THE DIVIDE

CITY           SKY/WX    TMP DP  RH WIND       PRES   REMARKS
KALISPELL      LGT RAIN  34  31  88 CALM      30.24R
MISSOULA       LGT RAIN  36  34  92 CALM      30.26S FOG
BUTTE          CLOUDY    34  31  88 E5        30.26R
MULLAN PASS    MIX PCPN  33  33 100 S7        30.20R VSB 1/4 WCI  27
ANACONDA         N/A     37  34  87 CALM      30.25R
DEER LODGE       N/A     36  34  93 N3        30.27R
HAMILTON         N/A     39  39 100 CALM      30.24F
PLAINS           N/A     39  35  85 CALM      30.23S
THOMPSON FALLS   N/A     39  37  92 CALM      30.28R
$$

MTZ008-052>055-121100-
SOUTHWEST MONTANA

CITY           SKY/WX    TMP DP  RH WIND       PRES   REMARKS
BOZEMAN        CLOUDY    34  31  88 S9        30.25F WCI  27
DILLON         CLOUDY    38  32  79 S14       30.24F WCI  30
ENNIS          CLOUDY    37  34  87 S15       30.32S WCI  28
TWIN BRIDGES     N/A     35  29  79 SW6       30.21S WCI  30
$$

MTZ009-010-012-014-046-048-049-054-121100-
EAST SLOPES AND CENTRAL MONTANA

CITY           SKY/WX    TMP DP  RH WIND       PRES   REMARKS
CUT BANK       CLOUDY    32  29  88 E7        30.24S WCI  26
GREAT FALLS    CLOUDY    32  29  88 N5        30.24S
MALMSTROM AFB  MOCLDY    30  28  91 E6        30.26S WCI  24
HELENA         LGT RAIN  37  32  82 CALM      30.25R
CHOTEAU          N/A     34  30  86 CALM      30.25S
CONRAD           N/A     28  27  96 MISG      30.24S
$$

MTZ011-013-016-021-045-047-050-051-121100-
NORTH CENTRAL MONTANA

CITY           SKY/WX    TMP DP  RH WIND       PRES   REMARKS
HAVRE          CLOUDY    26  25  96 SE5       30.30S FOG
LEWISTOWN      CLOUDY    30  26  85 SE5       30.26S
N BAR RANCH      N/A     28  25  86 E6        30.28S WCI  22
CHINOOK          N/A     30  30 100 E3        30.32S
$$

MTZ017>020-022>027-061-062-121100-
NORTHEAST MONTANA

CITY           SKY/WX    TMP DP  RH WIND       PRES   REMARKS
GLASGOW        CLOUDY    24  19  81 E14       30.38R WCI  12
JORDAN           N/A     32  27  81 N6        30.32R WCI  26
SIDNEY         CLOUDY    19  12  73 NE9       30.42R WCI   9
WOLF POINT     CLOUDY    22  14  71 E13       30.43R WCI  10
PLENTYWOOD       N/A      9   1  72 NE8       30.44R WCI  -4
POPLAR           N/A     18  10  73 NE12      30.45R WCI   5
$$

MTZ028>42-056>058-121100-
SOUTHCENTRAL AND SOUTHEAST MONTANA

CITY           SKY/WX    TMP DP  RH WIND       PRES   REMARKS
BAKER          CLOUDY    25  21  85 NW6       30.33R WCI  18
BILLINGS       PTCLDY    33  29  85 N3        30.28R
LIVINGSTON     CLOUDY    40  25  55 E7        30.26R
MILES CITY     CLOUDY    31  26  82 CALM      30.33R
FORSYTH          N/A     34  30  86 CALM      30.33R
LAUREL           N/A     32  22  67 CALM      30.23R
ROUNDUP          N/A     30  24  78 CALM      30.18R
$$

REGIONAL REPORTS...DAKOTAS

CITY           SKY/WX    TMP DP  RH WIND       PRES   REMARKS
WILLISTON      CLOUDY    14   8  77 N15       30.44R WCI  -1
MINOT          CLOUDY     4  -5  66 NW13      30.45R WCI -13
DICKINSON      CLOUDY    18  12  77 N9        30.33R WCI   7
BEACH          CLOUDY    19  18  93 NE7       30.38R WCI  10
CROSBY           N/A      0  -2  92 NW5       30.50R
TIOGA            N/A      5   3  92 N9        30.47R WCI  -9
WATFORD CITY   FLURRIES  16  10  79 N13       30.42R WCI   2
BISMARCK       CLOUDY    19  11  70 N8        30.40R WCI   9
GRAND FORKS    CLEAR      2  -7  66 N18       30.43R WCI -19
FARGO          CLEAR      5  -4  66 N17       30.41R WCI -14
BUFFALO SD       N/A     28  22  78 N12       30.23R WCI  18
RAPID CITY     CLOUDY    31  28  89 NW3       30.28R
$$

REGIONAL REPORTS...WYOMING/IDAHO/WASHINGTON

CITY           SKY/WX    TMP DP  RH WIND       PRES   REMARKS
GILLETTE       CLEAR     24  21  88 CALM      30.27R
SHERIDAN       CLOUDY    30  23  75 CALM      30.28R
BUFFALO WY     CLEAR     35  24  64 W8        30.27R WCI  29
CODY           CLEAR     34  18  51 CALM      30.24S
YELLOWSTONE LA   N/A     29  27  92 CALM      30.36R
IDAHO FALLS    CLOUDY    18  17  96 N6        30.36F FOG     WCI  10
SALMON         CLOUDY    27  23  86 CALM      30.34S
BOISE          PTCLDY    32  28  85 CALM      30.33R
SPOKANE        CLOUDY    40  38  93 E10       30.20F
$$

REGIONAL REPORTS...ALBERTA

CITY           SKY/WX    TMP DP  RH WIND       PRES   REMARKS
EDMONTON       CLOUDY    16   9  73 E10       30.34S WCI   3
CALGARY        FOG       28  28 100 SE10      30.22F VSB 1   WCI  19
LETHBRIDGE     CLOUDY    28  28 100 NE6       30.26F FOG     WCI  22
MEDICINE HAT   CLOUDY    25  25 100 E10       30.32F WCI  15
$$

REGIONAL REPORTS...SASKATCHEWAN

CITY           SKY/WX    TMP DP  RH WIND       PRES   REMARKS
SWIFT CURRENT  FLURRIES  10   9  92 E14       30.39R WCI  -5
REGINA         CLEAR      0  -4  85 W3        30.51R
SASKATOON      CLEAR     -4  -8  84 NE7       30.58R WCI -18
$$



USA.gov is the U.S. government's official web portal to all federal, state and local government web resources and services.